GW2944 Weather Reports


time (UTC)temp
C
wind
direction
speed
KPH
gust
KPH
rain 1hr
cm
rain 24hr
cm
rain mn
cm
humidity
%
barometer
mb
20260510065844 16 242 0.0 0.0 0.00 0.00 0.00 99 1012.8
20260510065342 16 242 0.0 0.0 0.00 0.00 0.00 99 1012.8
20260510064838 16 242 0.0 0.0 0.00 0.00 0.00 99 1013.1
20260510064336 16 242 0.0 0.0 0.00 0.00 0.00 99 1012.8
20260510063832 16 242 0.0 0.0 0.00 0.00 0.00 99 1013.1
20260510063329 16 242 0.0 0.0 0.00 0.00 0.00 99 1013.1
20260510062826 16 242 0.0 0.0 0.00 0.00 0.00 99 1013.1
20260510062321 16 242 0.0 0.0 0.00 0.00 0.00 99 1013.1
20260510061816 16 242 0.0 0.0 0.00 0.00 0.00 99 1013.1
20260510061314 16 242 0.0 0.0 0.00 0.00 0.00 99 1013.1
20260510060810 16 242 0.0 0.0 0.00 0.00 0.00 99 1012.8
20260510060307 16 242 0.0 0.0 0.00 0.00 0.00 99 1012.8
20260510055803 16 242 0.0 0.0 0.00 0.00 0.00 99 1013.1
20260510055306 16 242 0.0 0.0 0.00 0.00 0.00 99 1013.5
20260510054801 16 242 0.0 0.0 0.00 0.00 0.00 99 1013.1
20260510054257 16 242 0.0 0.0 0.00 0.00 0.00 99 1013.5
20260510053752 17 242 0.0 0.0 0.00 0.00 0.00 99 1013.5
20260510053248 17 242 0.0 0.0 0.00 0.00 0.00 99 1013.5
20260510052744 17 242 0.0 0.0 0.00 0.00 0.00 99 1013.1
20260510052240 17 242 0.0 0.0 0.00 0.00 0.00 99 1013.5
20260510051736 17 242 0.0 0.0 0.00 0.00 0.00 99 1013.1
20260510051233 17 242 0.0 0.0 0.00 0.00 0.00 99 1012.8
20260510050730 17 242 0.0 0.0 0.00 0.00 0.00 99 1012.8
20260510050227 17 242 0.0 0.0 0.00 0.00 0.00 99 1012.8
20260510045724 17 242 0.0 0.0 0.00 3.28 3.28 99 1012.8
20260510045221 17 242 0.0 0.0 0.00 3.28 3.28 99 1012.8
20260510044717 17 242 0.0 0.0 0.00 3.28 3.28 99 1012.8
20260510044216 17 242 0.0 0.0 0.00 3.28 3.28 99 1013.1
20260510043710 17 242 0.0 0.0 0.00 3.28 3.28 99 1013.1
20260510043207 17 242 0.0 0.0 0.00 3.28 3.28 99 1012.8
20260510042704 17 242 0.0 0.0 0.00 3.28 3.28 99 1013.1
20260510042200 17 242 0.0 0.0 0.00 3.28 3.28 99 1013.1
20260510041657 18 242 0.0 0.0 0.00 3.28 3.28 99 1013.5
20260510041154 18 242 0.0 0.0 0.00 3.28 3.28 99 1013.5
20260510040651 18 242 0.0 0.0 0.00 3.28 3.28 99 1013.1
20260510040148 18 242 0.0 0.0 0.00 3.28 3.28 99 1013.5
20260510035644 18 242 0.0 0.0 0.00 3.28 3.28 99 1013.5
20260510035139 18 242 0.0 0.0 0.00 3.28 3.28 99 1013.5
20260510034636 18 242 0.0 0.0 0.00 3.28 3.28 99 1013.8
20260510034133 18 242 0.0 0.0 0.00 3.28 3.28 99 1013.5
20260510033629 18 242 0.0 0.0 0.00 3.28 3.28 99 1013.5
20260510033127 18 242 0.0 0.0 0.00 3.28 3.28 99 1013.5
20260510032624 18 242 0.0 0.0 0.00 3.28 3.28 99 1013.8
20260510032119 18 242 0.0 0.0 0.00 3.28 3.28 99 1013.8
20260510031614 18 242 0.0 0.0 0.00 3.28 3.28 99 1013.8
20260510031111 18 242 0.0 0.0 0.00 3.28 3.28 99 1014.1
20260510030605 18 242 0.0 0.0 0.00 3.28 3.28 99 1013.8
20260510030104 18 242 0.0 0.0 0.00 3.28 3.28 98 1013.8
20260510025600 18 242 0.0 0.0 0.00 3.28 3.28 98 1013.5
20260510025058 18 242 0.0 0.0 0.00 3.28 3.28 98 1013.5
20260510024554 18 242 0.0 0.0 0.00 3.28 3.28 98 1013.1
20260510024050 19 242 0.0 0.0 0.00 3.28 3.28 98 1013.5
20260510023541 19 242 0.0 0.0 0.00 3.28 3.28 98 1013.5
20260510023038 19 243 0.0 0.0 0.00 3.28 3.28 98 1013.1
20260510022537 19 242 0.0 0.0 0.00 3.28 3.28 98 1013.5
20260510022032 19 243 0.0 0.0 0.00 3.28 3.28 97 1013.1
20260510021529 20 243 0.0 0.0 0.00 3.28 3.28 97 1013.1
20260510021026 20 243 0.0 0.0 0.00 3.28 3.28 97 1013.1
20260510020521 20 243 0.0 0.0 0.00 3.28 3.28 97 1013.1
20260510020017 20 243 0.0 0.0 0.00 3.28 3.28 97 1012.8
20260510015512 20 243 0.0 0.0 0.00 3.28 3.28 96 1013.1
20260510015008 20 243 0.0 0.0 0.00 3.28 3.28 96 1013.1
20260510014505 20 243 1.6 1.6 0.00 3.28 3.28 96 1012.8
20260510014001 20 243 0.0 0.0 0.00 3.28 3.28 96 1013.1
20260510013450 20 243 0.0 0.0 0.00 3.28 3.28 96 1013.1
20260510012947 20 162 0.0 0.0 0.00 3.28 3.28 96 1012.8
20260510012442 20 178 0.0 0.0 0.00 3.28 3.28 96 1012.8
20260510011936 20 187 0.0 0.0 0.00 3.28 3.28 96 1012.8
20260510011426 20 162 0.0 0.0 0.00 3.28 3.28 96 1012.1
20260510010922 20 179 0.0 0.0 0.00 3.28 3.28 96 1012.5
20260510010420 20 149 1.6 3.2 0.00 3.28 3.28 95 1012.5
20260510005916 20 176 0.0 0.0 0.00 3.28 3.28 95 1012.1
20260510005412 20 182 0.0 0.0 0.00 3.28 3.28 95 1011.8
20260510004910 20 181 0.0 0.0 0.00 3.28 3.28 95 1011.8
20260510004407 20 183 1.6 1.6 0.00 3.28 3.28 95 1011.8
20260510003905 20 187 0.0 0.0 0.00 3.28 3.28 95 1011.8
20260510003402 20 187 0.0 0.0 0.00 3.28 3.28 95 1011.8
20260510002901 21 211 1.6 1.6 0.00 3.28 3.28 95 1011.8
20260510002358 21 189 0.0 0.0 0.00 3.28 3.28 95 1011.3
20260510001854 21 189 0.0 0.0 0.00 3.28 3.28 95 1011.3
20260510001353 21 189 1.6 1.6 0.00 3.28 3.28 94 1011.8
20260510000848 21 223 0.0 0.0 0.00 3.28 3.28 95 1011.8
20260510000341 21 214 0.0 0.0 0.00 3.28 3.28 94 1011.3
20260509235836 21 206 3.2 3.2 0.00 3.28 3.28 94 1011.3
20260509235333 21 206 0.0 0.0 0.00 3.28 3.28 94 1011.3
20260509234829 21 83 1.6 3.2 0.00 3.28 3.28 94 1011.3
20260509234326 21 202 0.0 0.0 0.00 3.28 3.28 94 1011.0
20260509233824 21 140 1.6 1.6 0.00 3.28 3.28 93 1011.3
20260509233321 22 177 0.0 0.0 0.00 3.28 3.28 94 1011.0
20260509232817 21 105 0.0 0.0 0.00 3.28 3.28 93 1011.0
20260509232315 21 169 0.0 0.0 0.00 3.28 3.28 94 1011.0
20260509231811 21 188 0.0 0.0 0.00 3.28 3.28 94 1011.0
20260509231308 21 191 1.6 1.6 0.00 3.28 3.28 94 1011.0
20260509230806 22 232 3.2 3.2 0.00 3.28 3.28 93 1010.7
20260509230302 22 175 1.6 1.6 0.00 3.28 3.28 93 1010.7
20260509225757 22 165 0.0 0.0 0.00 3.28 3.28 93 1011.0
20260509225254 22 184 1.6 1.6 0.00 3.28 3.28 93 1010.7
20260509224750 22 179 0.0 1.6 0.00 3.28 3.28 92 1010.7
20260509224247 22 165 0.0 1.6 0.00 3.28 3.28 92 1010.7
20260509223744 22 186 3.2 4.8 0.00 3.28 3.28 92 1010.7
20260509223241 22 188 0.0 0.0 0.00 3.28 3.28 93 1010.7
20260509222738 22 356 3.2 4.8 0.00 3.28 3.28 92 1010.3
20260509222233 22 53 3.2 3.2 0.00 3.28 3.28 92 1010.7
20260509221729 22 199 1.6 1.6 0.00 3.28 3.28 91 1010.3
20260509221225 22 167 0.0 0.0 0.00 3.28 3.28 93 1010.3
20260509220721 23 192 1.6 3.2 0.00 3.28 3.28 92 1010.3
20260509220218 23 171 0.0 0.0 0.00 3.28 3.28 92 1010.3
20260509215713 23 179 0.0 0.0 0.00 3.28 3.28 92 1010.3
20260509215210 23 181 0.0 0.0 0.00 3.28 3.28 93 1010.0
20260509214707 23 181 0.0 0.0 0.00 3.28 3.28 92 1010.3
20260509214204 23 183 0.0 0.0 0.00 3.28 3.28 92 1010.3
20260509213702 23 182 0.0 0.0 0.00 3.28 3.28 91 1010.0
20260509213156 23 184 0.0 0.0 0.00 3.28 3.28 91 1010.3
20260509212654 23 184 0.0 0.0 0.00 3.28 3.28 90 1010.0
20260509212151 23 157 0.0 0.0 0.00 3.28 3.28 88 1010.3
20260509211647 23 157 0.0 1.6 0.00 3.28 3.28 87 1010.3
20260509211144 24 171 0.0 0.0 0.00 3.28 3.28 89 1010.0
20260509210641 24 171 0.0 0.0 0.00 3.28 3.28 90 1010.3
20260509210138 24 183 0.0 0.0 0.00 3.28 3.28 89 1010.0
20260509205633 23 183 0.0 1.6 0.00 3.28 3.28 88 1010.0
20260509205127 24 155 0.0 0.0 0.00 3.28 3.28 88 1010.3
20260509204624 24 180 0.0 0.0 0.00 3.28 3.28 85 1010.3
20260509204120 25 115 1.6 1.6 0.00 3.28 3.28 83 1010.0
20260509203616 25 167 0.0 0.0 0.00 3.28 3.28 83 1010.3
20260509203114 25 196 0.0 1.6 0.00 3.28 3.28 83 1010.7
20260509202609 25 206 0.0 0.0 0.00 3.28 3.28 85 1010.3
20260509202104 25 198 0.0 0.0 0.00 3.28 3.28 87 1010.7
20260509201559 25 198 0.0 0.0 0.00 3.28 3.28 88 1010.7
20260509201058 25 149 0.0 0.0 0.00 3.28 3.28 86 1011.0
20260509200557 25 149 0.0 1.6 0.00 3.28 3.28 83 1010.7
20260509200053 25 150 0.0 0.0 0.00 3.28 3.28 85 1010.7
20260509195549 25 150 0.0 0.0 0.00 3.28 3.28 86 1010.7
20260509195044 25 141 0.0 0.0 0.00 3.28 3.28 86 1011.0
20260509194538 25 181 1.6 1.6 0.00 3.28 3.28 88 1011.0
20260509194036 25 181 0.0 0.0 0.00 3.28 3.28 88 1011.0
20260509193531 25 181 0.0 0.0 0.00 3.28 3.28 88 1011.0
20260509193027 25 181 0.0 0.0 0.00 3.28 3.28 88 1011.0
20260509192524 25 181 0.0 0.0 0.00 3.28 3.28 85 1011.3
20260509192019 25 181 0.0 0.0 0.00 3.28 3.28 85 1011.0
20260509191514 25 181 0.0 0.0 0.00 3.28 3.28 84 1011.3
20260509191010 25 181 0.0 0.0 0.00 3.28 3.28 80 1011.3
20260509190507 25 176 0.0 0.0 0.00 3.28 3.28 85 1011.3
20260509190006 25 174 0.0 0.0 0.00 3.28 3.28 86 1011.0
20260509185502 25 174 0.0 0.0 0.00 3.28 3.28 87 1011.0
20260509184958 25 174 0.0 0.0 0.00 3.28 3.28 86 1011.0
20260509184457 25 173 0.0 0.0 0.00 3.28 3.28 84 1011.0
20260509183952 25 207 1.6 1.6 0.00 3.28 3.28 81 1011.0
20260509183447 25 126 0.0 0.0 0.00 3.28 3.28 82 1011.0
20260509182944 25 193 1.6 1.6 0.00 3.28 3.28 83 1011.0
20260509182440 25 195 0.0 0.0 0.00 3.28 3.28 83 1011.0
20260509181937 25 195 1.6 3.2 0.00 3.28 3.28 86 1011.0
20260509181436 25 117 0.0 0.0 0.00 3.28 3.28 85 1011.0
20260509180933 25 193 0.0 0.0 0.00 3.28 3.28 87 1011.3
20260509180428 25 193 0.0 0.0 0.00 3.28 3.28 90 1011.0
20260509175925 25 193 0.0 0.0 0.00 3.28 3.28 90 1011.0
20260509175421 25 193 1.6 1.6 0.00 3.28 3.28 87 1011.3
20260509174917 25 214 0.0 1.6 0.00 3.28 3.28 85 1011.3
20260509174414 25 214 0.0 0.0 0.00 3.28 3.28 86 1011.3
20260509173909 26 215 0.0 1.6 0.00 3.28 3.28 84 1011.3
20260509173404 26 213 0.0 0.0 0.00 3.28 3.28 85 1011.3
20260509172901 26 213 1.6 1.6 0.00 3.28 3.28 81 1011.8
20260509172357 26 213 0.0 1.6 0.00 3.28 3.28 81 1011.8
20260509171853 26 157 0.0 1.6 0.00 3.28 3.28 82 1011.8
20260509171349 25 220 1.6 1.6 0.00 3.28 3.28 77 1011.8
20260509170846 26 255 4.8 4.8 0.00 3.28 3.28 76 1011.8
20260509170341 26 118 1.6 1.6 0.00 3.28 3.28 79 1011.8
20260509165836 25 221 4.8 8.0 0.00 3.28 3.28 80 1012.1
20260509165331 25 147 1.6 1.6 0.00 3.28 3.28 83 1012.1
20260509164827 25 158 1.6 1.6 0.00 3.28 3.28 85 1011.8
20260509164324 25 162 1.6 1.6 0.00 3.28 3.28 86 1012.1
20260509163820 24 164 0.0 1.6 0.00 3.28 3.28 83 1012.1
20260509163317 23 158 0.0 0.0 0.00 3.28 3.28 86 1012.5
20260509162816 23 198 3.2 3.2 0.00 3.28 3.28 82 1012.5
20260509162314 23 166 1.6 1.6 0.00 3.28 3.28 83 1012.5
20260509161811 23 95 1.6 1.6 0.00 3.28 3.28 82 1012.8
20260509161307 23 124 1.6 1.6 0.00 3.28 3.28 88 1012.5
20260509160802 23 195 0.0 1.6 0.00 3.28 3.28 88 1012.8
20260509160259 23 156 0.0 0.0 0.00 3.28 3.28 88 1012.5
20260509155753 22 130 0.0 1.6 0.00 3.28 3.28 88 1012.5
20260509155251 22 159 0.0 0.0 0.00 3.28 3.28 87 1012.8
20260509154747 22 166 0.0 0.0 0.00 3.28 3.28 88 1012.8
20260509154244 22 189 0.0 0.0 0.00 3.28 3.28 90 1012.5
20260509153741 22 205 0.0 1.6 0.00 3.28 3.28 90 1012.5
20260509153237 22 125 0.0 0.0 0.00 3.28 3.28 92 1012.5
20260509152734 22 183 0.0 0.0 0.00 3.28 3.28 93 1012.5
20260509152230 21 165 0.0 0.0 0.00 3.28 3.28 94 1012.5
20260509151728 21 184 0.0 0.0 0.00 3.28 3.28 94 1012.5
20260509151224 21 193 0.0 0.0 0.00 3.28 3.28 97 1012.8
20260509150722 20 140 0.0 0.0 0.00 3.28 3.28 97 1012.8
20260509150221 20 158 3.2 3.2 0.00 3.28 3.28 99 1012.5
20260509145717 20 140 1.6 1.6 0.00 3.28 3.28 99 1012.8
20260509145211 20 116 1.6 1.6 0.00 3.28 3.28 99 1012.8
20260509144708 20 184 0.0 1.6 0.00 3.28 3.28 99 1012.8
20260509144205 19 131 1.6 1.6 0.00 3.28 3.28 99 1012.8
20260509143702 20 178 0.0 0.0 0.00 3.28 3.28 99 1012.8
20260509143159 19 213 0.0 0.0 0.00 3.28 3.28 99 1012.8
20260509142655 19 182 0.0 0.0 0.00 3.28 3.28 99 1012.8
20260509142152 18 183 0.0 0.0 0.00 3.28 3.28 99 1012.8
20260509141647 18 134 0.0 0.0 0.00 3.28 3.28 99 1012.8
20260509141144 18 164 0.0 0.0 0.00 3.28 3.28 99 1012.8
20260509140641 18 257 0.0 0.0 0.00 3.28 3.28 99 1012.8
20260509140139 18 146 0.0 0.0 0.00 3.28 3.28 99 1012.5
20260509135636 18 146 0.0 0.0 0.00 3.28 3.28 99 1012.5
20260509135134 18 146 0.0 0.0 0.00 3.28 3.28 99 1012.5
20260509134630 18 146 0.0 0.0 0.00 3.28 3.28 99 1012.5
20260509134128 18 146 0.0 0.0 0.00 3.28 3.28 99 1012.5
20260509133625 18 145 0.0 0.0 0.00 3.28 3.28 99 1012.5
20260509133122 18 155 0.0 0.0 0.00 3.28 3.28 99 1012.5
20260509132620 18 155 0.0 0.0 0.00 3.28 3.28 99 1012.1
20260509132119 18 154 0.0 0.0 0.00 3.28 3.28 99 1012.1
20260509131614 18 171 0.0 0.0 0.00 3.28 3.28 99 1011.8
20260509131111 18 185 0.0 0.0 0.00 3.28 3.28 99 1011.8
20260509130607 18 79 0.0 0.0 0.00 3.28 3.28 99 1011.8
20260509130104 17 79 0.0 0.0 0.00 3.28 3.28 99 1011.8
20260509125600 17 79 0.0 0.0 0.00 3.28 3.28 99 1011.8
20260509125057 17 79 0.0 1.6 0.00 3.28 3.28 99 1011.0
20260509124553 17 78 0.0 0.0 0.00 3.28 3.28 99 1010.7
20260509124051 17 78 0.0 0.0 0.00 3.28 3.28 99 1010.3
20260509123549 17 78 0.0 0.0 0.00 3.28 3.28 99 1010.3
20260509123045 17 78 0.0 0.0 0.00 3.28 3.28 99 1010.0
20260509122541 17 78 0.0 0.0 0.00 3.28 3.28 99 1010.0
20260509122038 17 58 1.6 1.6 0.00 3.28 3.28 99 1010.0
20260509121534 17 73 0.0 0.0 0.00 3.28 3.28 99 1009.6
20260509121032 17 190 0.0 0.0 0.00 3.28 3.28 99 1009.3
20260509120530 17 207 1.6 3.2 0.00 3.28 3.28 99 1009.0
20260509120029 17 253 4.8 8.0 0.00 3.28 3.28 99 1007.9
20260509115525 17 193 1.6 3.2 0.13 3.28 3.28 99 1008.3
20260509115023 17 209 0.0 0.0 0.13 3.28 3.28 99 1009.0
20260509114521 17 157 0.0 0.0 0.18 3.25 3.25 99 1009.3
20260509114020 17 137 0.0 1.6 0.48 3.25 3.25 99 1010.0
20260509113517 17 163 0.0 0.0 0.48 3.23 3.23 99 1010.7
20260509113015 17 165 0.0 0.0 0.30 3.17 3.17 99 1011.0
20260509112511 17 163 0.0 0.0 0.30 3.15 3.15 99 1010.7
20260509112008 17 162 0.0 0.0 0.30 3.12 3.12 99 1011.0
20260509111505 17 162 0.0 0.0 0.43 3.10 3.10 99 1011.3
20260509111002 17 163 0.0 0.0 0.61 3.07 3.07 99 1011.3
20260509110459 17 155 0.0 0.0 0.79 3.02 3.02 99 1011.8
20260509105956 17 174 0.0 0.0 0.79 2.97 2.97 99 1012.5
20260509105455 17 173 0.0 0.0 1.09 2.90 2.90 99 1012.1
20260509104951 17 173 0.0 0.0 1.32 2.82 2.82 99 1012.5
20260509104448 17 172 0.0 0.0 1.68 2.72 2.72 99 1011.8
20260509103946 17 169 0.0 0.0 1.37 2.59 2.59 99 1011.3
20260509103443 17 165 0.0 0.0 0.43 2.44 2.44 99 1011.0
20260509102941 17 164 0.0 0.0 0.00 2.36 2.36 99 1011.0
20260509102438 17 160 0.0 1.6 0.18 2.36 2.36 99 1010.3
20260509101934 17 160 0.0 0.0 0.18 2.36 2.36 99 1010.3
20260509101431 17 160 0.0 0.0 0.48 2.34 2.34 99 1010.7
20260509100928 17 159 0.0 0.0 2.46 2.34 2.34 99 1010.7
20260509100425 17 154 0.0 0.0 4.27 2.24 2.24 99 1011.0
20260509095922 17 122 1.6 1.6 3.96 1.78 1.78 99 1011.3
20260509095419 17 180 1.6 1.6 4.93 1.37 1.37 99 1011.3
20260509094916 17 114 3.2 3.2 4.27 1.12 1.12 99 1011.3
20260509094413 17 129 0.0 0.0 0.48 0.48 0.48 99 1011.8
20260509093911 17 121 0.0 1.6 0.00 0.41 0.41 99 1011.8
20260509093408 17 98 1.6 1.6 0.00 0.41 0.41 99 1011.0
20260509092906 17 174 0.0 0.0 0.00 0.41 0.41 99 1011.0
20260509092403 17 165 0.0 0.0 0.00 0.41 0.41 99 1010.3
20260509091901 17 165 0.0 0.0 0.00 0.41 0.41 99 1010.7
20260509091358 17 165 0.0 0.0 0.00 0.41 0.41 99 1010.0
20260509090855 17 165 0.0 0.0 0.00 0.41 0.41 99 1010.3
20260509090352 17 163 0.0 0.0 0.00 0.41 0.41 99 1010.3
20260509085849 17 164 0.0 0.0 0.00 0.41 0.41 99 1010.3
20260509085346 17 164 0.0 0.0 0.00 0.41 0.41 99 1010.3
20260509084843 17 164 0.0 0.0 0.13 0.41 0.41 99 1010.3
20260509084340 17 164 0.0 0.0 0.48 0.41 0.41 99 1010.7
20260509083838 17 164 0.0 0.0 1.98 0.38 0.38 99 1010.0
20260509083334 17 140 0.0 0.0 1.98 0.33 0.33 99 1010.3
20260509082831 17 183 0.0 0.0 0.36 0.05 0.05 99 1010.3
20260509082327 17 183 0.0 0.0 0.00 0.00 0.00 99 1010.0
20260509081825 17 183 0.0 0.0 0.00 0.00 0.00 99 1010.0
20260509081322 17 183 0.0 0.0 0.00 0.00 0.00 99 1010.0
20260509080820 17 183 0.0 0.0 0.00 0.00 0.00 99 1010.0
20260509080318 17 183 0.0 0.0 0.00 0.00 0.00 99 1010.3
20260509075816 17 183 0.0 0.0 0.00 0.00 0.00 99 1010.3
20260509075313 17 183 0.0 0.0 0.00 0.00 0.00 99 1010.7
20260509074810 17 183 0.0 0.0 0.00 0.00 0.00 99 1011.0
20260509074308 17 183 0.0 0.0 0.00 0.00 0.00 99 1011.0
20260509073803 17 183 0.0 0.0 0.00 0.00 0.00 99 1011.0
20260509073259 17 183 0.0 0.0 0.00 0.00 0.00 99 1011.0
20260509072756 17 183 0.0 0.0 0.00 0.00 0.00 99 1011.0
20260509072253 17 183 0.0 0.0 0.00 0.00 0.00 99 1011.0
20260509071749 17 131 0.0 0.0 0.00 0.00 0.00 99 1011.0
20260509071247 17 131 0.0 0.0 0.00 0.00 0.00 99 1011.3
20260509070744 17 131 0.0 0.0 0.00 0.00 0.00 99 1011.3
20260509070240 17 131 0.0 0.0 0.00 0.00 0.00 99 1011.0